Date String (YYYY-MM-DD hh:mm:ss) UTC,Instrument flags,Ambient pressure (hPa),Sample flow (lpm),Bypass flow (lpm),Sample temperature (°C),Ambient temperature (°C),ASC tube jacket temperature (°C),LED temperature (°C),Box temperature (°C),Sample RH (%),Span deviation,Mass concentration (μg/m³),Mass concentration (μg/m³),Mass concentration (μg/m³)
DateTimeUTC,F1_M11,P_M11,Q1_M11,Q2_M11,T1_M11,T2_M11,T3_M11,T4_M11,T5_M11,U1_M11,ZSPAN_M11,X0_M11,X2_M11,X1_M11
2022-12-09 13:00:00,,0825.2,4.99,0.00,21.8,22.4,00.0,30.4,23.8,06.6,0000.0,0006.05,0002.29,0001.76
2022-12-09 13:01:00,,0825.2,5.01,0.00,21.9,22.0,00.0,30.5,23.8,06.3,0000.0,0005.80,0002.21,0001.73
2022-12-09 13:02:00,,0825.1,5.02,0.00,21.8,21.5,00.0,30.5,23.7,06.1,0000.0,0005.58,0002.11,0001.66
2022-12-09 13:03:00,,0825.1,4.99,0.00,21.8,21.0,00.0,30.5,23.6,06.1,0000.0,0005.63,0002.12,0001.63
2022-12-09 13:04:00,,0825.1,4.98,0.00,21.8,20.5,00.0,30.6,23.4,06.1,0000.0,0005.27,0002.10,0001.59
2022-12-09 13:05:00,,0825.1,4.99,0.00,21.7,20.0,00.0,30.6,23.3,06.1,0000.0,0004.38,0002.05,0001.56
2022-12-09 13:06:00,,0825.0,5.02,0.00,21.6,19.7,00.0,30.6,23.2,06.1,0000.0,0003.87,0002.01,0001.53
2022-12-09 13:07:00,,0824.9,4.99,0.00,21.5,19.4,00.0,30.5,23.1,06.1,0000.0,0004.15,0001.98,0001.48
2022-12-09 13:08:00,,0824.9,5.02,0.00,21.5,19.3,00.0,30.5,23.0,06.1,0000.0,0004.36,0001.91,0001.42
2022-12-09 13:09:00,,0825.0,4.99,0.00,21.4,19.3,00.0,30.5,23.0,06.1,0000.0,0004.88,0001.90,0001.38
2022-12-09 13:10:00,,0825.1,4.98,0.00,21.5,20.4,00.0,30.4,23.2,06.2,0000.0,0005.29,0001.87,0001.35
2022-12-09 13:11:00,,0825.1,5.00,0.00,21.6,21.5,00.0,30.4,23.5,06.2,0000.0,0005.68,0001.84,0001.31
2022-12-09 13:12:00,,0825.1,5.01,0.00,21.7,21.5,00.0,30.4,23.6,06.2,0000.0,0005.91,0001.84,0001.28
2022-12-09 13:13:00,,0825.1,5.01,0.00,21.7,21.1,00.0,30.5,23.5,06.2,0000.0,0006.45,0001.87,0001.27
2022-12-09 13:14:00,,0825.0,5.00,0.00,21.7,20.7,00.0,30.5,23.4,06.1,0000.0,0007.40,0001.90,0001.25
2022-12-09 13:15:00,,0825.0,4.98,0.00,21.6,20.4,00.0,30.5,23.4,06.1,0000.0,0007.35,0001.91,0001.25
2022-12-09 13:16:00,,0825.1,4.98,0.00,21.6,20.1,00.0,30.5,23.3,06.1,0000.0,0007.55,0001.94,0001.27
2022-12-09 13:17:00,,0825.1,5.01,0.00,21.6,19.9,00.0,30.5,23.3,06.1,0000.0,0007.58,0001.97,0001.29
2022-12-09 13:18:00,,0825.1,5.01,0.00,21.5,19.7,00.0,30.5,23.2,06.1,0000.0,0007.36,0001.99,0001.29
2022-12-09 13:19:00,,0825.1,4.98,0.00,21.5,19.6,00.0,30.4,23.1,06.1,0000.0,0007.13,0001.99,0001.30
2022-12-09 13:20:00,,0825.1,5.01,0.00,21.4,19.5,00.0,30.4,23.1,06.1,0000.0,0006.37,0001.94,0001.30
2022-12-09 13:21:00,,0825.1,5.02,0.00,21.5,20.3,00.0,30.4,23.2,06.1,0000.0,0005.79,0001.92,0001.29
2022-12-09 13:22:00,,0825.0,5.00,0.00,21.6,21.4,00.0,30.4,23.4,06.1,0000.0,0005.41,0001.93,0001.29
2022-12-09 13:23:00,,0825.0,4.98,0.00,21.6,21.5,00.0,30.4,23.5,06.0,0000.0,0005.22,0001.90,0001.28
2022-12-09 13:24:00,,0825.0,4.99,0.00,21.6,20.9,00.0,30.4,23.4,06.0,0000.0,0004.60,0001.84,0001.27
2022-12-09 13:25:00,,0825.1,5.00,0.00,21.6,20.4,00.0,30.4,23.2,06.0,0000.0,0003.85,0001.73,0001.26
2022-12-09 13:26:00,,0825.1,5.02,0.00,21.5,19.9,00.0,30.4,23.1,06.0,0000.0,0003.74,0001.69,0001.25
2022-12-09 13:27:00,,0825.1,4.99,0.00,21.4,19.6,00.0,30.4,23.0,06.0,0000.0,0003.35,0001.66,0001.23
2022-12-09 13:28:00,,0825.1,4.99,0.00,21.4,19.4,00.0,30.4,22.9,06.0,0000.0,0003.35,0001.66,0001.21
2022-12-09 13:29:00,,0825.1,5.01,0.00,21.3,19.2,00.0,30.4,22.9,06.0,0000.0,0003.15,0001.61,0001.21
2022-12-09 13:30:00,,0825.1,4.98,0.00,21.3,20.0,00.0,30.3,23.0,06.0,0000.0,0003.04,0001.57,0001.20
2022-12-09 13:31:00,,0825.1,5.01,0.00,21.4,21.2,00.0,30.3,23.2,06.0,0000.0,0003.01,0001.56,0001.18
2022-12-09 13:32:00,,0825.0,5.01,0.00,21.5,21.9,00.0,30.3,23.4,05.9,0000.0,0003.58,0001.55,0001.18
2022-12-09 13:33:00,,0825.0,5.01,0.00,21.6,21.5,00.0,30.3,23.4,05.9,0000.0,0003.74,0001.51,0001.17
2022-12-09 13:34:00,,0825.0,4.99,0.00,21.5,20.9,00.0,30.4,23.3,06.0,0000.0,0003.65,0001.52,0001.16
2022-12-09 13:35:00,,0824.9,4.98,0.00,21.5,20.4,00.0,30.4,23.2,06.0,0000.0,0003.93,0001.58,0001.17
2022-12-09 13:36:00,,0824.9,5.00,0.00,21.5,19.9,00.0,30.4,23.1,06.0,0000.0,0003.71,0001.62,0001.17
2022-12-09 13:37:00,,0824.9,5.02,0.00,21.4,19.6,00.0,30.4,22.9,06.0,0000.0,0003.68,0001.63,0001.18
2022-12-09 13:38:00,,0824.9,4.98,0.00,21.3,19.3,00.0,30.4,22.9,06.0,0000.0,0003.69,0001.65,0001.19
2022-12-09 13:39:00,,0824.9,5.02,0.00,21.3,19.1,00.0,30.3,22.8,06.1,0000.0,0003.58,0001.64,0001.19
2022-12-09 13:40:00,,0824.9,4.98,0.00,21.2,19.1,00.0,30.3,22.8,06.1,0000.0,0004.46,0001.68,0001.20
2022-12-09 13:41:00,,0824.9,4.99,0.00,21.3,20.3,00.0,30.2,23.0,06.1,0000.0,0005.16,0001.71,0001.21
2022-12-09 13:42:00,,0824.8,5.02,0.00,21.4,21.6,00.0,30.2,23.3,06.1,0000.0,0005.50,0001.73,0001.22
2022-12-09 13:43:00,,0824.8,5.01,0.00,21.5,21.9,00.0,30.3,23.4,06.1,0000.0,0005.00,0001.74,0001.22
2022-12-09 13:44:00,,0824.7,5.00,0.00,21.5,21.2,00.0,30.3,23.3,06.1,0000.0,0004.78,0001.73,0001.22
2022-12-09 13:45:00,,0824.6,4.98,0.00,21.4,20.5,00.0,30.3,23.1,06.1,0000.0,0004.75,0001.70,0001.22
2022-12-09 13:46:00,,0824.7,4.99,0.00,21.4,20.1,00.0,30.3,23.0,06.2,0000.0,0004.44,0001.65,0001.22
2022-12-09 13:47:00,,0824.6,5.00,0.00,21.3,19.6,00.0,30.3,22.9,06.1,0000.0,0004.41,0001.64,0001.22
2022-12-09 13:48:00,,0824.6,5.02,0.00,21.3,19.3,00.0,30.3,22.8,06.2,0000.0,0004.48,0001.63,0001.23
2022-12-09 13:49:00,,0824.8,4.98,0.00,21.2,19.1,00.0,30.3,22.7,06.3,0000.0,0004.54,0001.64,0001.23
2022-12-09 13:50:00,,0824.9,5.03,0.00,21.1,19.0,00.0,30.2,22.6,06.3,0000.0,0004.71,0001.68,0001.24
2022-12-09 13:51:00,,0824.7,4.98,0.00,21.2,20.1,00.0,30.2,22.9,06.3,0000.0,0003.93,0001.69,0001.24
2022-12-09 13:52:00,,0824.7,5.00,0.00,21.3,21.4,00.0,30.2,23.1,06.2,0000.0,0003.21,0001.67,0001.23
2022-12-09 13:53:00,,0824.7,5.01,0.00,21.4,21.3,00.0,30.2,23.2,06.1,0000.0,0002.87,0001.66,0001.23
2022-12-09 13:54:00,,0824.7,5.01,0.00,21.4,20.9,00.0,30.2,23.2,06.2,0000.0,0003.43,0001.65,0001.23
2022-12-09 13:55:00,,0824.7,5.00,0.00,21.4,20.6,00.0,30.3,23.1,06.2,0000.0,0004.44,0001.64,0001.24
2022-12-09 13:56:00,,0824.7,4.99,0.00,21.4,20.4,00.0,30.3,23.1,06.2,0000.0,0004.44,0001.64,0001.25
2022-12-09 13:57:00,,0824.6,4.98,0.00,21.4,20.2,00.0,30.2,23.1,06.1,0000.0,0004.42,0001.62,0001.24
2022-12-09 13:58:00,,0824.6,5.02,0.00,21.4,20.1,00.0,30.3,23.1,06.1,0000.0,0005.25,0001.63,0001.25
2022-12-09 13:59:00,,0824.6,5.01,0.00,21.4,20.0,00.0,30.2,23.1,06.1,0000.0,0005.54,0001.64,0001.24
